TimeCST,TemperatureF,Dew PointF,Humidity,Sea Level PressureIn,VisibilityMPH,Wind Direction,Wind SpeedMPH,Gust SpeedMPH,PrecipitationIn,Events,Conditions,WindDirDegrees,DateUTC
12:55 AM,39.0,30.0,70,29.91,10.0,SW,3.5,-,N/A,,Clear,220,2013-11-15 06:55:00
1:55 AM,30.0,27.0,88,29.91,9.0,Calm,Calm,-,N/A,,Clear,0,2013-11-15 07:55:00
2:55 AM,30.9,27.0,85,29.90,10.0,Calm,Calm,-,N/A,,Clear,0,2013-11-15 08:55:00
3:55 AM,30.0,27.0,88,29.88,10.0,Calm,Calm,-,N/A,,Clear,0,2013-11-15 09:55:00
4:55 AM,28.9,26.1,89,29.89,9.0,Calm,Calm,-,N/A,,Clear,0,2013-11-15 10:55:00
5:55 AM,28.0,27.0,96,29.89,8.0,Calm,Calm,-,N/A,,Clear,0,2013-11-15 11:55:00
6:55 AM,28.0,27.0,96,29.89,8.0,SSE,4.6,-,N/A,,Clear,160,2013-11-15 12:55:00
7:55 AM,34.0,30.9,89,29.88,9.0,South,12.7,-,N/A,,Clear,180,2013-11-15 13:55:00
8:55 AM,39.0,33.1,79,29.86,10.0,South,19.6,-,N/A,,Clear,190,2013-11-15 14:55:00
9:55 AM,43.0,35.1,74,29.86,10.0,South,11.5,-,N/A,,Clear,190,2013-11-15 15:55:00
10:55 AM,48.9,35.1,59,29.85,10.0,South,9.2,-,N/A,,Clear,180,2013-11-15 16:55:00
11:55 AM,54.0,35.1,49,29.81,10.0,South,13.8,-,N/A,,Clear,170,2013-11-15 17:55:00
12:55 PM,55.9,36.0,47,29.78,10.0,South,20.7,24.2,N/A,,Clear,170,2013-11-15 18:55:00
1:55 PM,57.0,36.0,45,29.73,10.0,South,17.3,-,N/A,,Clear,170,2013-11-15 19:55:00
2:55 PM,57.9,37.0,46,29.68,10.0,SSE,21.9,26.5,N/A,,Clear,150,2013-11-15 20:55:00
3:55 PM,57.0,37.0,47,29.67,10.0,SSE,20.7,26.5,N/A,,Clear,160,2013-11-15 21:55:00
4:55 PM,55.9,37.9,51,29.65,10.0,SSE,20.7,25.3,N/A,,Clear,160,2013-11-15 22:55:00
5:55 PM,51.1,37.9,61,29.66,10.0,SSE,10.4,-,N/A,,Clear,150,2013-11-15 23:55:00
6:55 PM,48.0,37.0,66,29.67,10.0,SE,5.8,-,N/A,,Clear,130,2013-11-16 00:55:00
7:55 PM,48.0,37.9,68,29.65,10.0,SE,8.1,-,N/A,,Clear,130,2013-11-16 01:55:00
8:55 PM,51.1,42.1,71,29.62,10.0,SSE,15.0,-,N/A,,Clear,150,2013-11-16 02:55:00
9:55 PM,51.1,43.0,74,29.61,9.0,SSE,15.0,-,N/A,,Clear,160,2013-11-16 03:55:00
10:55 PM,53.1,45.0,74,29.57,8.0,South,18.4,29.9,N/A,,Clear,180,2013-11-16 04:55:00
11:55 PM,53.1,45.0,74,29.55,9.0,South,25.3,32.2,N/A,,Clear,180,2013-11-16 05:55:00